Tracking 22223 objects as of 26-Jan-2021
HD Live streaming from Space Station
objects crossing your sky now

OPS 1570

Track OPS 1570 now!
OPS 1570 is classified as:


NORAD ID: 5851
Int'l Code: 1972-010A
Perigee: 35,897.4 km
Apogee: 35,974.4 km
Inclination: 4.6 °
Period: 1,443.4 minutes
Semi major axis: 42306 km
RCS: Unknown
Launch date: March 1, 1972
Source: United States (US)
Launch site: AIR FORCE EASTERN TEST RANGE (AFETR)
aabbcc
Your satellite tracking list
Your tracking list is empty




NASA's NSSDC Master Catalog

Two Line Element Set (TLE):
1 05851U 72010A   21025.80758653 -.00000004  00000-0  00000-0 0  9996
2 05851   4.6430 289.3570 0009090 345.1638 220.7296  0.99766820  6281
Source of the keplerian elements: McCants